Wind_Speed
14 15 15 15 16 16 15 14 14 14 14 13 11 10 9 8 7 6 4 4 4 4 5 4 4 3 3 3 3 3 4 4 4 5 5 6 6 7 7 8 8 9 9
13 14 14 14 15 15 15 14 13 13 13 13 12 10 9 8 7 6 5 4 5 5 6 5 5 4 5 5 5 5 6 6 6 6 7 7 8 8 8 9 10 10 11
12 13 13 14 14 14 15 14 14 13 13 12 12 11 9 9 8 6 6 5 5 6 7 7 6 6 6 6 6 6 7 8 8 8 8 9 10 10 10 10 11 12 13
12 12 13 13 14 14 14 14 15 14 13 12 12 11 10 10 9 8 6 6 6 6 7 7 7 7 6 6 7 8 8 9 9 10 10 10 10 10 11 11 11 12 13
11 12 12 13 13 13 14 14 14 14 14 13 13 12 11 10 10 9 7 7 6 7 7 7 8 7 7 7 8 9 9 10 11 11 11 11 11 11 11 11 13 13 13
11 12 12 13 13 13 13 14 14 14 14 13 13 13 12 11 10 9 9 8 8 8 8 8 8 8 8 8 8 9 10 10 10 10 10 10 11 11 12 12 13 14 14
11 11 12 12 13 13 13 13 14 14 14 14 13 13 13 12 12 11 10 10 10 9 8 8 8 8 9 9 10 10 10 10 9 9 10 11 11 12 13 13 13 14 14
12 12 13 13 13 13 13 13 14 14 14 14 14 13 13 13 13 13 12 12 11 10 10 10 10 10 10 10 11 11 10 10 10 10 11 11 12 13 13 14 14 15 15
13 13 13 13 12 13 13 14 13 14 14 14 14 14 13 13 13 13 13 13 12 11 11 11 11 11 11 12 11 11 11 11 11 11 11 12 13 13 14 15 15 16 16
13 14 14 14 14 13 13 14 14 13 14 14 14 14 14 14 13 13 14 14 12 12 12 12 12 12 12 13 13 13 13 12 12 12 13 13 13 14 14 16 16 17 17
14 14 15 15 14 14 14 14 14 14 14 14 15 15 15 15 14 15 15 14 14 12 12 13 13 12 13 13 13 14 13 13 13 13 14 14 15 15 16 17 17 18 18
16 15 16 15 15 15 14 14 14 15 15 15 15 15 15 16 16 16 16 15 15 14 13 13 13 13 13 13 13 13 13 14 14 15 15 16 16 17 17 17 18 19 19
18 17 16 14 14 15 15 15 15 15 16 16 16 16 16 17 17 17 16 16 15 15 14 14 14 14 14 14 14 14 14 15 15 16 16 17 17 18 18 19 19 20 20
17 18 18 17 16 15 15 16 16 16 17 17 16 16 17 17 17 17 16 16 15 15 15 15 15 15 15 15 16 15 15 15 16 17 17 18 18 19 20 20 21 21 22
19 18 18 18 17 16 16 17 17 17 17 18 18 17 17 17 17 18 16 15 15 15 16 16 16 17 17 16 16 16 16 16 17 18 19 19 20 20 21 21 22 22 23
19 18 18 18 17 17 17 17 18 18 19 19 19 18 18 18 18 18 17 17 17 17 17 17 17 17 16 16 17 17 17 18 19 19 20 20 21 21 21 22 23 24 24
21 20 19 18 18 18 18 18 18 18 19 19 19 18 18 17 18 18 18 18 18 18 17 17 17 16 16 16 16 17 17 18 19 19 19 20 20 21 22 22 23 23 24
21 21 20 19 19 19 18 18 19 19 19 19 18 17 17 18 18 19 19 19 18 18 18 18 17 17 17 16 16 17 18 18 18 17 18 19 20 21 22 22 23 24 24
22 22 21 21 20 20 20 19 20 20 19 19 18 18 18 18 19 19 20 19 19 19 18 18 18 18 18 17 17 18 18 18 17 18 18 19 20 21 22 23 24 24 25
22 22 22 22 21 21 21 20 20 20 20 20 19 19 19 19 20 20 20 20 20 19 19 18 17 18 18 17 17 18 18 18 18 18 19 19 20 21 22 23 23 23 24
23 23 23 22 22 22 21 21 21 20 20 20 20 20 20 20 20 20 20 21 20 20 19 18 17 18 18 18 18 18 19 19 19 19 20 20 20 21 22 23 23 23 24
24 24 24 24 23 22 22 21 21 20 21 21 20 20 20 20 20 20 20 21 20 19 18 18 18 18 18 19 19 19 19 19 20 20 21 22 22 22 23 23 24 24 24
25 25 24 24 24 23 22 22 21 21 21 21 21 21 21 20 20 20 20 20 19 18 18 18 19 19 19 19 19 19 20 20 21 21 22 22 23 23 23 24 24 25 26
26 25 24 24 23 23 22 22 22 22 23 22 22 21 21 21 20 21 21 20 19 19 19 19 19 19 20 20 20 20 21 21 21 22 23 23 23 24 24 25 26 27 27
26 25 24 23 23 23 23 23 23 23 23 23 22 22 22 22 22 22 21 21 20 20 19 20 20 20 20 20 21 21 22 23 23 23 24 24 24 24 25 26 27 29 29
25 25 24 23 23 23 24 24 23 23 23 23 23 22 22 22 23 23 23 22 21 21 20 21 21 21 21 21 22 22 23 24 25 25 25 25 25 25 26 27 28 29 30
Wind_Direction
14 15 15 17 18 20 20 20 24 26 27 29 30 30 31 30 31 30 32 30 20 7 1 349 325 305 293 285 289 293 285 284 284 283 287 290 291 290 293 297 303 304 302
7 9 10 12 13 13 16 16 16 19 20 23 24 24 24 24 23 24 21 15 6 3 356 340 323 313 296 287 289 293 285 281 283 286 289 289 289 290 291 297 302 302 299
1 4 7 8 10 10 11 13 13 12 12 15 17 17 16 16 14 11 7 5 354 349 349 341 327 319 303 290 293 298 292 287 284 283 287 287 289 292 294 296 297 299 300
354 358 360 2 4 7 6 8 9 7 6 7 9 9 10 11 8 5 0 357 353 345 343 345 343 330 315 297 296 297 291 289 289 290 289 292 294 290 295 299 299 299 300
343 346 349 353 356 1 4 4 5 5 4 3 4 3 3 3 0 358 356 348 344 340 338 340 341 332 315 303 297 299 292 289 290 293 294 294 295 296 297 298 300 301 303
329 335 341 345 349 352 357 359 359 0 1 0 360 359 360 358 356 352 350 347 340 331 326 325 328 328 319 312 305 303 301 299 296 295 299 302 301 300 298 298 300 302 301
311 318 330 337 342 345 348 350 352 353 354 354 354 352 351 350 349 349 345 337 333 330 324 319 317 320 320 317 318 312 307 307 305 299 298 299 299 300 301 300 301 303 303
302 309 319 328 337 337 339 340 342 343 343 345 346 346 344 343 341 341 340 335 331 329 326 320 314 314 316 316 316 317 311 310 308 305 302 299 298 301 303 304 302 302 301
291 299 307 319 326 330 331 334 334 336 337 338 340 340 339 338 338 337 335 331 329 327 323 319 316 313 310 309 309 310 311 309 309 308 307 303 303 303 307 306 307 305 303
285 292 300 309 315 320 321 324 327 328 330 333 334 333 332 332 334 334 333 327 324 321 320 316 313 310 307 305 304 304 305 305 304 304 305 306 307 309 309 309 309 308 307
278 283 290 301 306 310 313 316 320 323 324 327 329 329 329 331 331 330 329 329 326 323 322 317 313 309 308 306 304 302 300 300 301 302 302 304 307 307 307 307 309 309 308
276 279 282 289 297 304 309 315 320 322 324 323 323 324 326 325 325 325 327 327 327 323 320 317 314 313 310 308 305 305 301 300 301 301 301 301 302 306 309 309 310 310 310
274 277 283 290 294 297 304 309 314 317 320 322 321 321 321 320 320 322 324 323 321 319 318 317 316 313 310 306 304 302 301 300 300 301 302 301 301 303 307 309 310 310 310
274 276 282 288 291 293 300 304 308 312 316 318 318 318 317 318 318 318 318 319 317 316 316 316 315 314 312 310 306 302 300 299 299 301 302 302 301 302 304 305 307 309 310
272 275 279 283 286 287 293 299 302 307 311 314 314 315 316 317 319 319 319 320 319 318 316 316 316 314 310 309 309 304 299 299 299 300 300 300 300 301 303 304 306 307 307
270 273 277 279 282 287 291 296 300 304 308 310 309 310 313 315 317 320 319 319 317 316 315 314 316 316 315 313 312 308 302 302 301 300 298 298 300 301 302 302 303 303 304
268 270 274 276 279 285 290 294 298 302 307 309 308 308 310 312 313 315 316 317 317 315 316 315 313 313 315 315 314 312 308 307 307 304 301 301 301 301 302 303 304 305 304
266 268 272 274 277 282 287 291 296 301 305 307 308 307 308 310 311 312 313 314 316 316 316 316 313 312 312 312 313 313 313 312 311 310 308 305 304 304 304 304 305 306 306
265 267 269 273 276 280 285 289 294 299 302 304 306 305 306 308 310 310 310 311 314 314 315 314 313 313 313 312 313 312 313 314 311 311 311 310 308 307 307 306 306 306 307
264 266 267 271 274 278 282 286 290 295 298 300 302 302 303 306 308 309 309 310 311 311 311 311 312 312 312 311 313 313 314 313 312 312 312 311 310 310 310 309 308 309 310
262 264 266 269 273 276 280 284 288 292 296 298 299 302 302 303 306 308 307 309 309 309 308 308 308 309 311 310 311 311 312 312 312 313 313 313 314 313 312 312 310 311 312
260 262 265 268 270 273 277 282 286 290 294 297 297 299 301 303 305 306 308 310 310 308 309 307 306 306 309 310 310 309 311 310 311 312 312 313 314 313 311 311 313 313 312
259 261 264 266 268 271 274 280 283 287 291 294 295 297 300 302 303 305 308 310 310 312 311 309 307 307 308 309 309 310 310 311 311 311 311 312 312 312 311 312 313 314 314
258 260 262 264 268 271 274 278 281 285 288 290 294 296 297 299 300 303 306 307 309 311 311 309 309 308 307 308 309 309 310 310 311 311 311 310 310 311 311 311 312 312 312
257 259 261 263 265 269 273 277 280 283 287 289 291 293 294 296 299 302 303 304 305 307 308 309 309 306 305 306 307 308 309 309 310 310 311 311 311 311 311 311 311 312 313
255 256 258 261 264 267 270 274 277 280 285 289 290 292 293 294 297 299 300 301 301 303 305 306 308 307 306 307 310 310 310 310 310 311 311 311 310 309 310 311 312 312 313
Height
5934 5933 5931 5929 5928 5926 5924 5923 5921 5919 5917 5916 5915 5914 5913 5912 5912 5911 5911 5911 5911 5911 5911 5911 5911 5910 5910 5910 5910 5910 5911 5911 5911 5911 5911 5911 5910 5910 5909 5908 5908 5907 5906
5936 5934 5932 5931 5929 5928 5926 5924 5923 5921 5919 5918 5916 5915 5915 5914 5913 5912 5912 5912 5911 5911 5911 5910 5910 5910 5910 5910 5910 5910 5910 5910 5910 5910 5909 5909 5909 5908 5907 5907 5906 5905 5904
5937 5935 5934 5932 5931 5929 5927 5926 5924 5923 5921 5919 5918 5917 5916 5914 5914 5913 5912 5912 5911 5911 5910 5910 5909 5909 5908 5909 5909 5908 5908 5908 5908 5908 5908 5907 5906 5906 5905 5904 5904 5903 5902
5938 5936 5935 5933 5931 5930 5928 5927 5925 5924 5922 5921 5919 5918 5917 5915 5914 5913 5912 5912 5911 5910 5910 5909 5908 5908 5908 5907 5907 5907 5906 5906 5906 5906 5905 5905 5904 5903 5903 5902 5901 5900 5899
5938 5937 5935 5934 5932 5931 5929 5928 5926 5924 5923 5921 5920 5918 5917 5916 5914 5913 5912 5911 5910 5909 5909 5908 5908 5907 5906 5906 5906 5905 5904 5904 5904 5903 5903 5902 5901 5901 5900 5900 5899 5898 5896
5938 5937 5935 5934 5932 5931 5930 5928 5927 5925 5923 5922 5920 5918 5917 5916 5914 5913 5911 5910 5909 5908 5908 5907 5906 5906 5905 5905 5904 5903 5903 5902 5901 5900 5900 5899 5899 5898 5898 5897 5896 5894 5893
5937 5936 5934 5933 5932 5931 5929 5928 5927 5925 5924 5922 5920 5919 5917 5915 5914 5912 5911 5909 5908 5907 5906 5906 5905 5904 5904 5903 5902 5901 5900 5900 5899 5898 5898 5897 5896 5896 5895 5894 5893 5891 5891
5936 5935 5933 5932 5931 5930 5929 5928 5926 5925 5923 5922 5920 5918 5916 5915 5913 5912 5910 5908 5907 5906 5905 5904 5904 5903 5902 5902 5900 5899 5898 5898 5897 5896 5895 5894 5894 5893 5892 5891 5889 5888 5887
5935 5933 5931 5930 5930 5929 5928 5927 5925 5924 5922 5921 5919 5917 5915 5913 5912 5910 5909 5907 5906 5905 5904 5903 5902 5901 5901 5900 5899 5898 5897 5896 5895 5894 5893 5892 5891 5890 5889 5887 5886 5885 5883
5933 5932 5930 5930 5929 5928 5927 5925 5924 5922 5921 5920 5918 5916 5914 5912 5910 5909 5907 5904 5903 5903 5902 5901 5900 5899 5898 5897 5896 5895 5894 5893 5892 5892 5890 5889 5888 5887 5885 5884 5882 5881 5880
5930 5930 5929 5928 5927 5926 5925 5924 5922 5921 5919 5918 5917 5915 5913 5911 5909 5907 5906 5903 5902 5901 5900 5899 5898 5897 5896 5895 5894 5893 5892 5891 5890 5889 5888 5886 5885 5883 5882 5881 5879 5878 5876
5927 5927 5926 5925 5924 5924 5923 5922 5921 5919 5918 5916 5915 5913 5911 5909 5907 5906 5904 5902 5900 5899 5898 5896 5895 5894 5893 5892 5891 5890 5889 5888 5886 5885 5884 5883 5882 5880 5878 5877 5875 5873 5872
5924 5924 5922 5920 5922 5922 5921 5920 5919 5917 5916 5914 5912 5911 5909 5907 5905 5903 5902 5900 5898 5896 5895 5894 5892 5891 5890 5889 5887 5886 5885 5884 5883 5881 5880 5879 5878 5876 5875 5873 5871 5869 5867
5920 5921 5920 5919 5919 5918 5918 5917 5916 5915 5914 5912 5910 5909 5907 5905 5903 5901 5898 5897 5895 5894 5893 5891 5890 5888 5886 5885 5884 5882 5881 5880 5879 5877 5876 5875 5873 5872 5870 5869 5867 5865 5862
5916 5917 5917 5917 5917 5916 5916 5915 5914 5913 5911 5910 5908 5906 5904 5902 5900 5897 5895 5894 5892 5891 5890 5888 5887 5885 5883 5881 5880 5878 5877 5875 5874 5873 5872 5870 5869 5867 5865 5864 5862 5860 5857
5912 5913 5914 5913 5914 5913 5913 5912 5911 5910 5908 5907 5905 5903 5901 5899 5897 5895 5892 5891 5890 5888 5887 5885 5883 5882 5880 5878 5876 5875 5873 5872 5870 5869 5867 5865 5864 5863 5861 5859 5857 5854 5851
5908 5909 5909 5910 5910 5910 5909 5908 5908 5907 5905 5903 5902 5900 5898 5896 5895 5893 5891 5889 5887 5885 5883 5882 5880 5878 5877 5875 5873 5871 5869 5868 5866 5864 5862 5861 5859 5857 5856 5854 5851 5848 5845
5903 5904 5905 5905 5906 5906 5906 5905 5904 5903 5902 5900 5898 5897 5895 5893 5892 5890 5888 5886 5884 5882 5880 5879 5877 5875 5873 5871 5869 5867 5866 5863 5862 5860 5858 5856 5854 5852 5850 5848 5846 5843 5840
5899 5899 5900 5901 5902 5902 5902 5901 5900 5899 5898 5897 5895 5893 5892 5890 5889 5887 5885 5883 5881 5879 5877 5875 5873 5871 5870 5868 5866 5864 5862 5859 5857 5856 5854 5851 5850 5848 5845 5843 5840 5837 5834
5894 5895 5896 5896 5897 5897 5897 5897 5896 5896 5895 5893 5891 5890 5889 5887 5885 5883 5881 5879 5877 5875 5873 5871 5869 5868 5866 5864 5862 5860 5858 5856 5853 5851 5849 5847 5845 5843 5840 5837 5835 5831 5829
5889 5890 5891 5892 5892 5893 5893 5892 5892 5892 5891 5889 5888 5886 5885 5883 5882 5880 5877 5875 5873 5871 5869 5867 5865 5864 5862 5860 5858 5856 5854 5852 5849 5847 5845 5843 5840 5838 5835 5832 5829 5826 5823
5883 5884 5885 5886 5887 5887 5888 5888 5888 5887 5886 5885 5884 5882 5881 5879 5877 5875 5873 5871 5868 5866 5865 5863 5861 5860 5858 5856 5854 5852 5850 5847 5845 5843 5841 5838 5835 5833 5830 5827 5824 5821 5818
5877 5879 5880 5881 5881 5882 5883 5883 5883 5883 5882 5881 5880 5878 5877 5875 5873 5872 5869 5867 5864 5862 5861 5860 5858 5856 5854 5852 5850 5847 5845 5843 5841 5838 5836 5833 5831 5828 5825 5822 5819 5816 5812
5871 5873 5874 5875 5876 5877 5877 5878 5878 5878 5877 5876 5875 5873 5872 5871 5869 5867 5865 5863 5861 5859 5858 5856 5854 5853 5850 5848 5846 5843 5841 5839 5836 5834 5831 5828 5825 5823 5820 5817 5814 5810 5807
5865 5867 5868 5869 5870 5871 5872 5872 5872 5872 5872 5871 5870 5868 5867 5866 5864 5863 5861 5859 5857 5855 5854 5852 5850 5848 5846 5844 5841 5839 5837 5834 5831 5828 5825 5823 5820 5817 5814 5811 5808 5804 5800
5859 5861 5862 5863 5865 5866 5866 5866 5866 5866 5866 5865 5864 5863 5862 5860 5859 5858 5856 5854 5853 5851 5849 5848 5846 5843 5841 5839 5836 5834 5832 5829 5826 5823 5820 5817 5815 5811 5808 5805 5801 5797 5793